This is the latest recevied weather packets stored in our database for station/object KD7ECD. If no packets are shown the sender has not sent any weather packets the latest 10 day(s).
| Time | Temp. | Humidity | Pressure | Rain* | Wind** | Luminosity | Snow |
|---|---|---|---|---|---|---|---|
| 1777933058 | 15.56° C | 68% | 1017.3 hPa | 0 mm | - | 66 W/m² | - |
| 1777932457 | 15.56° C | 69% | 1017.4 hPa | 0 mm | - | 63 W/m² | - |
| 1777931852 | 15.56° C | 68% | 1017.2 hPa | 0 mm | - | 75 W/m² | - |
| 1777931250 | 15.56° C | 67% | 1017.2 hPa | 0 mm | - | 83 W/m² | - |
| 1777930649 | 16.11° C | 66% | 1017.4 hPa | 0 mm | - | 79 W/m² | - |
| 1777930048 | 16.11° C | 63% | 1017.4 hPa | 0 mm | - | 100 W/m² | - |
| 1777929448 | 16.11° C | 62% | 1017.6 hPa | 0 mm | - | 108 W/m² | - |
| 1777928848 | 16.11° C | 63% | 1017.4 hPa | 0 mm | - | 127 W/m² | - |
| 1777928248 | 16.67° C | 61% | 1017.4 hPa | 0 mm | - | 170 W/m² | - |
| 1777927643 | 16.67° C | 60% | 1017.4 hPa | 0 mm | - | 176 W/m² | - |
| 1777927041 | 16.67° C | 60% | 1017.5 hPa | 0 mm | - | 239 W/m² | - |
| 1777926437 | 16.67° C | 60% | 1017.4 hPa | 0 mm | - | 251 W/m² | - |
| 1777925838 | 16.11° C | 61% | 1017.3 hPa | 0 mm | - | 189 W/m² | - |
| 1777925232 | 16.11° C | 61% | 1017.4 hPa | 0 mm | - | 150 W/m² | - |
| 1777924631 | 16.67° C | 62% | 1017.2 hPa | 0 mm | - | 179 W/m² | - |
| 1777924029 | 16.11° C | 62% | 1017.5 hPa | 0 mm | - | 258 W/m² | - |
| 1777923428 | 16.11° C | 62% | 1017.3 hPa | 0 mm | - | 370 W/m² | - |
| 1777922824 | 16.67° C | 62% | 1017.5 hPa | 0 mm | - | 321 W/m² | - |
| 1777922220 | 16.11° C | 63% | 1017.6 hPa | 0 mm | - | 229 W/m² | - |
| 1777921617 | 15.56° C | 64% | 1017.6 hPa | 0 mm | - | 256 W/m² | - |
| 1777921017 | 15.56° C | 64% | 1017.5 hPa | 0 mm | - | 183 W/m² | - |
| 1777920415 | 15.56° C | 65% | 1017.5 hPa | 0 mm | - | 211 W/m² | - |
| 1777919813 | 15.56° C | 66% | 1017.3 hPa | 0 mm | - | 219 W/m² | - |
| 1777919208 | 16.11° C | 65% | 1017.7 hPa | 0 mm | - | 187 W/m² | - |
| 1777918603 | 16.67° C | 62% | 1017.5 hPa | 0 mm | - | 920 W/m² | - |
* Rain latest hour (hover to see other rain measurements)
** Current wind speed in m/s (hover to see current wind gust speed)